Location: Moena
(46.3667°N, 11.6500°E)
Time: 09:26:59
(UTC+00:00)

GP-B - Pass Details

Date: 19 June 2021
Orbit: 631 x 635 km, 89.8° (Epoch: 28 July)

Event Time Altitude Azimuth Distance (km) Brightness Sun altitude
Rises 22:56:39 0° 4° (N) 2,944 8.1 -20.1°
Reaches altitude 10° 22:58:54 10° 8° (N) 2,030 6.8 -20.1°
Maximum altitude 23:03:20 61° 89° (E) 721 3.3 -20.1°
Enters shadow 23:04:26 45° 145° (SE) 862 3.4 -20.2°
